Theta_e
335 328 318 317 306 307 305 307 312 312 314 317 317 316 316 320 322 321 349 353 353 357 361 361 363 363 363 364 364 364 363 363 363 362 362 361 362 362 362 362 361 359 354 352 353 354 355 355 355
325 316 316 312 303 300 305 308 309 314 315 316 318 318 320 327 338 341 346 353 355 358 360 358 362 362 363 363 362 362 363 363 362 362 361 361 361 361 361 360 360 357 354 352 353 354 355 354 354
318 313 310 306 302 299 303 308 311 312 314 314 315 319 322 330 341 343 350 355 357 358 359 358 361 361 362 362 361 361 361 361 361 361 361 360 360 360 360 360 360 358 354 352 353 354 355 354 353
313 312 309 301 299 303 305 310 309 311 314 315 315 314 332 345 344 347 354 355 356 356 356 360 361 361 361 361 360 360 360 360 360 360 360 360 360 359 359 359 359 357 354 353 354 355 355 355 355
310 308 299 299 300 303 306 309 309 309 310 312 315 313 322 347 352 353 353 354 353 354 354 358 360 360 361 360 360 360 359 359 359 359 359 359 359 358 357 357 357 356 355 355 354 355 356 356 355
305 305 296 294 298 303 306 308 308 308 310 312 313 316 327 350 351 352 353 353 354 353 354 356 359 359 359 360 359 359 359 358 358 358 358 357 357 356 356 355 355 355 355 354 354 354 354 353 351
302 299 295 296 296 299 304 310 307 308 309 311 315 315 334 345 352 353 353 354 354 353 353 355 355 358 359 358 358 358 357 357 357 357 357 357 357 356 355 354 354 354 354 353 352 350 349 348 346
304 302 294 295 295 296 304 308 310 309 309 315 321 319 327 344 353 353 353 352 353 352 351 352 354 352 353 355 358 357 357 357 357 357 357 357 356 355 353 352 352 351 351 350 349 349 348 346 345
303 297 293 294 295 297 304 303 309 311 310 311 317 329 338 350 351 349 349 349 350 350 350 351 351 351 351 350 353 356 356 356 356 356 356 354 350 351 350 350 348 349 350 349 350 350 349 347 346
300 295 294 299 300 300 302 302 304 306 309 309 312 339 345 348 348 346 346 344 346 347 348 350 350 351 350 348 352 351 349 350 350 350 352 350 351 351 349 349 350 349 350 351 351 350 348 345 339
297 294 297 299 301 302 301 302 305 304 304 309 310 317 339 345 346 346 345 344 344 348 348 348 352 353 351 347 351 351 350 351 352 353 354 354 351 351 349 348 346 347 348 344 345 345 342 341 342
294 297 299 300 301 301 300 303 302 304 306 310 311 313 313 330 343 344 343 344 345 348 348 349 351 353 354 352 351 351 349 351 351 351 355 353 350 350 348 345 345 347 344 344 345 342 343 343 342
295 297 298 300 300 301 302 299 300 301 305 308 309 310 310 314 332 345 345 346 346 347 349 349 351 352 353 354 353 353 352 351 352 352 354 353 350 349 349 347 346 344 343 342 341 341 341 340 340
298 298 298 299 299 300 298 299 300 302 306 306 308 309 311 316 330 342 344 343 345 347 349 351 352 354 354 354 355 354 355 354 353 353 353 354 352 352 349 348 347 345 344 343 341 340 340 339 339
298 296 300 300 300 298 300 295 296 302 304 304 306 309 311 316 331 340 344 344 345 346 349 351 352 354 354 354 355 355 354 354 353 353 355 354 354 353 352 349 349 348 347 346 344 343 343 342 342
297 295 293 300 300 300 298 294 301 304 303 304 307 308 310 313 332 340 344 347 347 346 344 349 351 352 353 354 354 353 354 354 354 354 354 353 354 354 352 349 349 350 348 347 345 344 342 341 341
295 292 293 296 299 298 298 297 302 306 305 305 307 308 310 313 329 336 340 344 346 344 349 347 351 351 353 354 353 353 354 353 352 352 351 352 354 354 352 350 351 352 349 348 347 345 343 341 341
291 291 293 294 299 297 296 297 302 305 304 305 307 309 310 311 320 324 335 341 347 350 350 345 346 351 351 350 351 351 350 351 352 352 351 353 353 353 353 351 350 350 347 346 345 345 345 343 342
296 294 293 297 300 298 298 299 302 304 304 305 306 308 313 313 316 316 320 332 337 347 351 350 347 349 348 345 343 344 345 346 347 349 349 352 351 352 352 350 350 349 346 346 349 345 345 344 345
295 294 294 298 300 298 299 299 303 303 304 305 306 308 311 313 312 315 317 322 327 335 339 346 346 348 344 344 344 347 345 344 347 347 347 346 347 348 348 348 348 349 346 348 347 347 343 343 345
295 294 295 295 298 300 297 297 299 301 303 304 306 308 310 313 314 314 316 321 324 327 334 337 343 345 346 343 345 348 346 346 342 343 342 344 344 346 348 348 349 350 349 346 347 347 342 338 343
294 300 298 297 295 291 296 289 297 300 301 303 305 305 308 309 309 313 314 317 322 323 329 335 341 342 343 344 344 345 341 340 343 344 347 348 351 351 351 348 346 346 346 346 344 345 345 344 337
296 299 298 297 295 294 294 292 295 298 299 302 304 307 311 311 310 310 311 315 316 321 330 337 340 343 345 345 347 345 345 346 347 344 343 342 342 343 341 344 345 344 341 343 345 344 344 342 340
300 297 294 293 294 289 294 292 293 297 299 302 306 310 310 311 312 312 312 313 317 323 328 337 342 344 346 346 347 348 340 336 337 335 334 334 336 337 339 337 338 339 338 337 337 340 340 339 339
297 294 289 287 287 287 292 290 294 298 304 305 306 308 309 311 312 313 312 311 316 322 328 335 341 339 343 343 341 339 336 336 334 331 329 331 331 331 334 335 334 332 334 334 335 335 334 334 334
297 296 290 283 284 288 291 289 295 304 307 306 306 308 311 312 313 314 315 315 315 320 329 335 337 336 339 338 336 335 335 330 333 332 330 331 331 332 334 332 332 331 330 329 330 327 327 330 329
296 293 296 290 289 289 292 294 299 304 304 305 306 307 308 310 314 316 317 317 319 323 328 331 330 328 330 330 330 331 331 331 330 333 335 334 334 331 330 330 329 329 328 327 327 323 325 326 327
300 300 293 294 285 284 289 290 293 300 302 303 305 306 307 309 311 314 317 320 321 324 325 326 327 326 326 328 329 330 332 333 334 335 334 334 333 331 329 328 328 327 327 326 327 324 324 325 323
299 297 297 296 294 288 286 290 300 302 304 303 305 306 307 307 308 311 313 315 319 321 322 324 324 324 325 327 329 330 330 332 333 333 334 333 332 331 328 327 326 325 325 326 325 325 323 322 323
299 297 298 293 291 293 291 291 305 305 306 307 306 309 310 311 311 312 312 314 315 316 318 320 321 322 323 324 326 328 330 331 331 331 331 331 329 329 327 326 324 323 322 323 323 320 319 319 319
Wind_Speed
8 5 1 1 4 3 4 3 3 4 2 1 8 7 12 10 7 7 4 8 16 21 18 18 16 15 16 17 18 19 19 19 19 18 18 18 17 16 14 13 13 13 13 12 13 13 13 13 12
5 1 1 2 5 8 6 3 6 6 7 11 9 6 4 2 1 2 9 8 18 19 18 17 16 16 16 18 18 19 19 19 18 18 18 17 16 15 14 13 12 13 12 12 12 12 12 11 11
2 3 3 3 5 12 5 6 5 2 11 6 6 6 5 2 1 3 2 15 18 17 18 16 17 16 15 16 18 18 18 18 18 18 17 16 15 14 13 12 11 12 12 12 12 12 11 11 10
2 3 2 7 14 8 8 5 1 9 4 2 4 12 2 2 3 3 13 19 19 18 17 18 18 17 16 15 15 17 17 17 16 17 17 15 14 13 12 11 11 10 11 11 11 10 10 10 9
2 1 6 7 17 11 10 10 5 7 10 10 13 6 7 2 2 10 17 17 19 16 15 17 15 16 16 16 16 15 15 15 16 16 16 16 14 13 12 11 10 10 10 10 10 9 8 7 6
4 0 6 16 20 11 10 13 12 12 12 14 10 10 2 3 7 11 16 18 19 18 16 16 16 16 17 17 16 15 15 15 15 15 14 14 14 13 12 10 9 8 8 8 8 7 5 4 4
5 4 10 13 16 13 14 11 14 11 12 12 8 11 1 6 8 12 14 16 16 17 17 15 16 16 17 17 17 17 15 15 14 13 11 11 11 10 9 8 7 7 6 5 5 4 4 4 4
3 3 5 8 14 19 7 5 5 9 12 5 4 6 6 6 13 12 14 15 16 16 15 15 15 16 16 15 17 17 16 15 13 13 11 10 9 8 7 5 5 5 4 5 4 4 4 4 4
3 6 10 10 11 8 3 9 7 4 8 5 3 9 9 16 14 13 14 17 15 13 15 15 15 15 15 15 15 16 18 16 14 12 11 9 8 9 8 5 4 4 5 5 4 4 5 4 6
7 6 8 4 6 11 8 10 13 9 11 10 10 7 6 9 15 16 17 19 20 19 19 16 15 15 15 11 13 13 12 11 10 11 10 8 7 6 5 3 5 6 6 5 5 5 4 6 5
5 7 6 6 9 9 13 13 9 13 20 18 13 3 6 10 11 15 18 19 22 21 17 18 17 15 15 11 9 7 7 7 7 9 8 7 5 5 5 4 5 5 5 5 5 5 4 4 5
5 8 13 8 13 11 13 13 18 21 22 15 16 14 10 12 15 18 19 20 20 21 20 19 18 15 15 10 9 9 8 8 8 9 10 7 6 7 6 5 5 5 4 4 4 3 4 6 6
9 9 9 15 14 18 19 23 27 26 19 20 20 21 21 19 20 19 16 15 16 20 20 19 18 16 14 13 10 10 10 9 9 9 10 8 7 7 6 5 5 5 4 5 5 5 5 6 7
5 8 12 11 19 17 18 23 24 7 11 19 17 18 19 19 21 20 17 17 19 18 20 19 19 17 16 14 14 11 9 10 9 9 9 11 8 7 7 6 6 6 6 5 5 5 6 7 7
4 7 13 15 18 12 15 22 29 21 17 22 20 19 18 19 18 21 23 19 18 17 16 19 19 18 17 16 13 10 10 10 9 9 11 11 10 9 8 7 6 6 5 6 6 6 7 7 7
2 1 6 7 10 10 13 16 19 19 20 21 20 17 15 19 20 21 18 18 15 13 15 15 16 18 17 15 11 9 8 9 8 8 7 10 11 11 9 8 7 5 5 6 6 6 7 7 7
2 6 10 10 9 3 15 13 21 16 16 18 18 17 14 13 17 17 18 15 12 13 14 15 18 19 20 15 10 9 10 9 7 6 7 10 10 10 9 8 7 7 7 7 7 7 7 7 8
3 5 8 10 5 5 9 18 16 12 10 13 17 17 13 10 12 13 18 17 18 17 11 13 9 12 12 8 9 9 9 8 8 8 8 9 8 10 9 8 9 8 7 7 7 8 7 8 8
11 11 15 21 12 11 12 14 14 9 9 10 12 14 13 12 14 6 6 9 8 11 13 11 17 15 10 8 10 9 9 8 6 6 9 10 9 11 9 7 7 7 7 8 7 6 7 8 6
11 12 17 17 7 8 7 13 9 6 3 5 11 11 16 13 10 10 8 9 11 13 13 11 10 12 14 11 9 4 9 4 7 7 8 10 10 9 8 9 7 7 6 7 7 7 6 5 4
12 15 15 15 12 9 9 10 2 1 4 1 4 9 11 12 14 9 11 12 9 14 14 13 13 16 13 10 9 5 6 3 5 6 7 9 10 10 10 9 8 7 6 4 4 5 7 5 3
13 14 19 16 7 8 1 6 5 4 2 4 2 1 10 12 9 11 10 13 13 12 6 12 13 13 13 15 12 15 10 10 7 7 7 6 8 9 9 7 6 4 3 3 3 3 5 6 5
7 5 8 10 10 6 7 6 3 3 2 3 4 6 7 9 8 11 13 13 11 9 9 8 11 12 12 16 14 11 8 6 7 7 11 9 7 6 7 7 7 5 4 3 2 3 4 5 6
4 5 2 2 4 8 8 7 6 6 2 3 3 9 10 10 11 9 9 8 11 11 10 10 11 11 12 12 10 11 11 10 9 10 8 7 6 6 7 8 6 5 4 4 4 4 5 5 6
4 5 5 6 7 8 4 6 7 2 2 5 10 12 12 11 10 7 8 9 7 8 9 10 13 13 13 12 11 12 13 11 12 12 9 10 7 7 8 8 7 6 5 4 3 2 3 4 6
8 6 7 7 6 5 3 6 2 2 2 3 4 6 8 10 10 10 9 6 6 4 6 8 11 11 12 12 13 13 14 10 7 9 9 7 7 8 9 7 6 6 5 4 3 3 4 4 5
6 7 1 4 2 5 2 3 4 1 1 5 8 8 10 11 11 10 8 6 1 7 10 11 12 12 12 13 12 11 10 10 9 10 9 8 8 7 9 8 7 6 5 5 4 4 4 4 6
4 7 4 3 7 10 5 3 5 4 4 3 6 8 9 9 10 11 11 8 7 8 10 12 11 12 10 10 9 9 9 8 7 7 7 7 7 8 9 9 8 7 7 6 6 6 5 6 6
3 4 3 1 2 6 9 5 2 2 5 6 4 5 6 8 9 9 8 8 7 7 8 8 8 8 6 5 5 5 5 6 6 7 8 8 8 9 10 9 9 9 9 10 8 8 8 8 9
2 1 1 4 5 1 4 4 4 2 5 5 5 3 4 5 7 8 7 7 7 7 7 7 7 6 6 5 4 3 4 5 6 7 8 8 10 10 10 10 11 11 12 11 10 10 10 11 11
Wind_Direction
300 306 219 178 247 261 234 212 295 226 193 87 298 284 295 281 269 306 345 158 149 149 155 162 162 156 148 145 138 134 136 139 142 143 145 138 143 146 149 151 150 153 149 146 145 142 140 137 138
323 228 121 114 245 235 224 189 208 256 333 316 307 320 278 300 339 96 137 168 158 148 152 162 162 158 154 147 140 138 141 142 143 143 143 143 146 148 152 155 156 157 154 153 152 151 149 147 149
269 343 206 214 226 237 244 193 199 266 313 319 310 326 302 319 342 186 151 157 152 152 154 160 159 159 158 149 143 143 144 144 145 144 142 145 149 152 157 159 162 162 163 162 163 162 162 161 160
162 141 105 232 227 240 235 149 24 311 327 294 318 301 160 75 298 195 151 154 154 154 158 153 156 158 156 150 146 144 145 144 145 144 146 150 153 156 161 166 168 170 171 170 171 171 174 174 170
61 139 210 231 242 249 245 265 290 303 308 300 314 287 281 61 59 143 149 154 153 154 160 155 154 155 154 154 151 147 147 145 147 151 155 157 160 162 167 171 173 176 177 178 177 181 187 186 179
133 259 214 233 234 235 248 267 276 277 287 291 291 285 257 122 151 152 153 159 157 154 160 157 158 159 160 157 156 154 153 153 154 158 163 164 166 168 172 176 177 181 180 183 186 189 197 203 200
183 190 230 251 253 246 240 258 257 269 278 283 287 283 109 193 159 154 157 158 160 159 159 164 170 165 165 161 160 157 157 160 160 161 169 170 170 173 178 179 178 183 185 190 194 202 205 219 228
128 217 213 233 243 264 241 220 263 246 273 275 287 258 253 163 153 153 156 159 160 164 166 168 174 175 176 172 164 163 162 164 166 166 171 177 175 176 179 179 184 192 197 208 210 215 223 233 246
158 221 237 233 225 249 259 274 258 285 267 309 323 310 331 141 148 157 163 162 166 172 175 178 178 179 181 179 176 170 170 172 173 175 181 177 196 192 191 187 165 204 216 222 223 232 244 253 253
202 227 223 222 247 259 270 294 285 280 272 273 284 44 95 153 164 168 178 175 176 180 180 180 185 184 184 182 177 184 180 184 187 190 191 202 197 200 210 205 206 221 227 229 238 244 259 255 274
178 239 204 218 236 254 267 274 260 261 256 252 270 330 183 184 203 189 191 192 188 182 183 186 183 185 189 187 181 184 184 182 187 191 195 198 196 199 209 211 214 221 211 243 226 237 248 285 292
220 223 229 247 241 257 263 279 260 249 253 285 282 288 274 236 212 216 198 195 193 190 189 185 187 186 190 187 187 185 191 190 189 193 195 196 200 202 212 218 211 219 224 241 249 258 258 259 252
228 243 230 240 251 251 259 254 260 259 276 282 282 282 280 277 232 216 221 199 197 198 192 190 189 189 189 191 191 190 196 198 194 193 196 203 211 212 214 220 228 235 230 232 235 250 259 258 261
189 246 260 256 249 244 244 250 250 267 269 273 278 275 274 279 237 214 207 204 203 203 197 190 193 194 193 198 195 196 198 195 197 197 202 203 213 215 215 217 225 232 236 244 251 253 267 266 268
277 297 301 257 251 241 235 260 264 262 258 266 267 265 266 267 244 217 210 202 196 204 196 196 196 194 200 202 203 200 201 197 199 204 201 203 208 215 227 230 230 237 240 248 249 253 255 265 262
338 278 275 267 228 245 188 267 264 246 238 247 256 254 256 260 229 222 216 218 210 186 192 196 202 199 200 200 205 209 201 202 204 199 204 211 216 218 220 232 240 238 231 245 253 259 266 267 272
133 270 241 289 207 127 194 253 252 246 232 239 247 250 248 246 227 219 216 208 188 192 213 180 209 201 202 198 187 194 203 201 203 196 202 211 219 216 226 230 240 232 243 243 247 250 249 265 267
224 248 284 276 5 253 226 255 274 260 240 238 240 242 238 235 231 217 224 215 198 193 206 199 175 208 193 187 188 187 186 204 201 202 217 215 208 210 216 228 229 228 241 245 241 252 250 257 272
245 264 281 284 276 295 246 261 269 286 236 239 237 237 238 228 234 291 239 206 198 211 208 193 177 178 185 179 176 207 204 175 202 200 200 209 202 210 209 234 235 224 232 248 249 256 265 266 260
239 262 275 285 291 225 271 271 261 259 197 230 249 237 227 230 264 253 241 205 181 214 215 196 182 188 185 182 189 195 175 202 202 198 195 189 211 211 212 214 227 230 245 247 245 240 250 250 245
227 238 261 263 310 263 287 257 271 161 302 202 244 281 256 252 237 229 267 239 235 192 210 210 200 179 180 190 167 144 172 156 195 186 189 195 204 219 218 213 215 213 216 225 233 228 227 249 239
245 234 241 263 264 271 286 298 295 335 257 287 60 219 268 265 253 254 244 246 232 237 219 203 200 183 178 171 182 185 191 188 199 179 185 166 181 192 190 181 177 177 183 198 233 242 250 246 259
251 188 225 253 238 239 205 253 270 299 306 318 359 345 321 303 247 243 242 246 253 245 220 200 200 194 184 184 190 184 180 166 150 143 142 149 151 156 170 162 161 161 169 172 204 226 240 253 262
262 243 126 146 198 232 232 234 237 240 226 283 309 315 317 322 319 295 279 262 219 198 192 188 189 200 197 185 174 163 146 137 146 138 137 149 154 157 170 156 157 156 161 178 194 220 241 261 261
202 222 230 212 205 248 149 204 257 232 292 300 317 326 332 329 328 322 284 258 235 206 187 179 180 179 173 166 143 144 143 152 150 151 159 164 163 173 177 169 163 166 165 162 171 223 270 274 273
204 223 242 248 239 237 168 222 190 279 354 23 5 348 357 358 352 342 336 310 274 229 177 182 168 155 154 144 141 144 148 155 150 163 162 169 179 185 173 171 167 161 160 167 198 238 258 261 266
165 215 22 165 86 253 247 234 236 160 99 31 26 22 19 10 12 12 3 358 102 149 141 138 130 124 131 129 135 138 144 154 154 160 168 172 172 169 178 179 176 186 199 209 216 251 259 265 267
250 132 180 205 231 247 197 245 251 192 178 62 46 41 30 29 28 27 33 54 81 99 112 119 131 131 140 147 144 145 148 147 148 160 175 179 179 188 185 188 194 200 212 216 221 238 245 261 274
175 193 68 12 281 262 264 246 170 184 188 139 84 49 29 32 29 28 34 38 51 100 121 131 142 138 118 93 95 110 129 151 168 186 192 196 198 203 206 206 210 217 222 222 222 236 251 253 263
302 72 286 237 213 256 314 255 27 18 147 154 132 83 51 33 34 33 24 18 23 29 35 47 45 58 61 71 88 117 153 177 197 214 217 212 218 218 226 226 228 230 232 231 228 235 238 243 250